This is the latest recevied weather packets stored in our database for station/object DJ5CM-10. If no packets are shown the sender has not sent any weather packets the latest 10 day(s).
| Time | Temp. | Humidity | Pressure | Rain* | Wind** | Luminosity | Snow |
|---|---|---|---|---|---|---|---|
| 1777629185 | 17.78° C | 56% | 1027.4 hPa | - | - | - | - |
| 1777628285 | 17.22° C | 58% | 1027.7 hPa | - | - | - | - |
| 1777627385 | 16.67° C | 60% | 1027.7 hPa | - | - | - | - |
| 1777626485 | 16.11° C | 62% | 1028 hPa | - | - | - | - |
| 1777625585 | 15.56° C | 64% | 1028 hPa | - | - | - | - |
| 1777624684 | 15° C | 66% | 1028.1 hPa | - | - | - | - |
| 1777623784 | 14.44° C | 68% | 1028.2 hPa | - | - | - | - |
| 1777622884 | 13.89° C | 69% | 1028.3 hPa | - | - | - | - |
| 1777622147 | 12.78° C | 70% | 1028.3 hPa | - | - | - | - |
| 1777621984 | 12.78° C | 70% | 1028.3 hPa | - | - | - | - |
| 1777621084 | 12.22° C | 71% | 1028.3 hPa | - | - | - | - |
| 1777620184 | 11.67° C | 71% | 1028.3 hPa | - | - | - | - |
| 1777619284 | 10.56° C | 71% | 1028.5 hPa | - | - | - | - |
| 1777618384 | 10° C | 71% | 1028.5 hPa | - | - | - | - |
| 1777617484 | 9.44° C | 70% | 1028.5 hPa | - | - | - | - |
| 1777616583 | 8.33° C | 69% | 1028.6 hPa | - | - | - | - |
| 1777615683 | 7.78° C | 67% | 1028.6 hPa | - | - | - | - |
| 1777614783 | 7.22° C | 66% | 1028.7 hPa | - | - | - | - |
| 1777613883 | 6.67° C | 65% | 1028.6 hPa | - | - | - | - |
| 1777612983 | 6.67° C | 63% | 1028.5 hPa | - | - | - | - |
| 1777612083 | 6.67° C | 62% | 1028.5 hPa | - | - | - | - |
| 1777611183 | 6.11° C | 61% | 1028.5 hPa | - | - | - | - |
| 1777610337 | 6.11° C | 61% | 1028.4 hPa | - | - | - | - |
| 1777610283 | 6.11° C | 61% | 1028.4 hPa | - | - | - | - |
| 1777609383 | 6.67° C | 60% | 1028.4 hPa | - | - | - | - |
* Rain since midnight (hover to see other rain measurements)
** Current wind speed in m/s (hover to see current wind gust speed)